Location: Newark
(48.8833°N, 0.9236°W)
Time: 05:13:07
(UTC+00:00)

Tiros 1 despin weight - Pass Details

Date: 22 November 2019
Orbit: 594 x 642 km, 48.2° (Epoch: 15 December)

Event Time Altitude Azimuth Distance (km) Brightness Sun altitude
Rises 11:40:42 0° 211° (SSW) 2,818 ? 21.0°
Reaches altitude 10° 11:43:19 10° 197° (SSW) 1,919 ? 21.0°
Maximum altitude 11:46:47 23° 145° (SE) 1,271 ? 21.0°
Drops below altitude 10° 11:50:17 10° 92° (E) 1,929 ? 21.0°
Sets 11:52:55 0° 78° (ENE) 2,839 ? 21.0°
